Location: Beutels
(47.8767°N, 9.8584°E)
Time: 17:33:04
(UTC+00:00)

Cosmos 1932 - Pass Details

Date: 19 May 2025
Orbit: 929 x 1000 km, 65.0° (Epoch: 17 June)

Event Time Altitude Azimuth Distance (km) Brightness Sun altitude
Rises 21:41:22 0° 321° (NW) 3,682 9.0 -18.8°
Reaches altitude 10° 21:43:56 10° 320° (NW) 2,741 8.0 -19.0°
Maximum altitude 21:50:22 79° 236° (SW) 1,013 4.5 -19.4°
Enters shadow 21:53:27 34° 154° (SSE) 1,589 5.0 -19.6°
